Deming, NM

5:21 AM MDT on July 28, 2016 (GMT -0600)
Deming Municipal

Weather History for KDMN - December, 2012

Change the Weather History Date:

Friday, December 28, 2012

  Actual Average Record
Temperature  
Mean Temperature 32 °F 40 °F  
Max Temperature 47 °F 55 °F 70 °F (1951)
Min Temperature 20 °F 25 °F 7 °F (1988)
Degree Days  
Heating Degree Days 32    
Moisture  
Dew Point 19 °F    
Average Humidity 62    
Maximum Humidity 92    
Minimum Humidity 31    
Precipitation  
Precipitation 0.00 in 0.03 in 0.41 in (1948)
Month to date precipitation 0.46 0.78  
Year to date precipitation 4.26 11.44  
Sea Level Pressure  
Sea Level Pressure 30.06 in    
Wind  
Wind Speed 8 mph (West)    
Max Wind Speed 15 mph    
Max Gust Speed 20 mph    
Visibility 10 miles    
Events      
T = Trace of Precipitation, MM = Missing Value Source: NWS Daily Summary

Daily Weather History Graph

Daily Weather History Graph

Search for Another Location

Airport or City:

Trip Planner

Search our weather history database for the weather conditions in past years. The results will help you decide how hot, cold, wet, or windy it might be!

Date:

Astronomy

Dec. 28, 2012 Rise Set
Actual Time 7:11 AM MST 5:14 PM MST
Civil Twilight 6:44 AM MST 5:41 PM MST
Nautical Twilight 6:13 AM MST 6:12 PM MST
Astronomical Twilight 5:43 AM MST 6:42 PM MST
Moon 5:50 PM MST 7:10 AM MST
Length of Visible Light 10h 57m
Length of Day
10h 03m
Full, 100% of the Moon is Illuminated
Dec 28
Full
Jan 4
Last Quarter
Jan 11
New
Jan 18
First Quarter
Jan 26
Full

Hourly Weather History & Observations

Time (MST) Temp. Windchill Dew Point Humidity Pressure Visibility Wind Dir Wind Speed Gust Speed Precip Events Conditions
12:53 AM 30.0 °F 20.5 °F 21.9 °F 72% 29.93 in 10.0 mi WNW 11.5 mph - N/A   Clear
1:53 AM 30.0 °F 20.5 °F 23.0 °F 75% 29.94 in 10.0 mi WNW 11.5 mph - N/A   Clear
2:53 AM 28.9 °F 19.8 °F 23.0 °F 78% 29.94 in 10.0 mi West 10.4 mph - N/A   Clear
3:53 AM 25.0 °F 20.7 °F 19.9 °F 81% 29.98 in 10.0 mi South 3.5 mph - N/A   Clear
4:53 AM 23.0 °F 18.4 °F 19.9 °F 88% 30.01 in 10.0 mi SSW 3.5 mph - N/A   Clear
5:53 AM 19.9 °F 14.9 °F 18.0 °F 92% 30.04 in 10.0 mi SW 3.5 mph - N/A   Clear
6:53 AM 21.9 °F 12.5 °F 19.9 °F 92% 30.06 in 10.0 mi WSW 8.1 mph - N/A   Clear
7:53 AM 24.1 °F 19.7 °F 21.0 °F 88% 30.09 in 10.0 mi WSW 3.5 mph - N/A   Clear
9:53 AM 37.0 °F 31.6 °F 25.0 °F 62% 30.12 in 10.0 mi WNW 6.9 mph - N/A   Clear
10:53 AM 41.0 °F 34.3 °F 24.1 °F 51% 30.09 in 10.0 mi WNW 11.5 mph - N/A   Clear
11:53 AM 44.1 °F 38.6 °F 21.0 °F 40% 30.05 in 10.0 mi WNW 10.4 mph - N/A   Scattered Clouds
12:53 PM 46.0 °F 40.6 °F 18.0 °F 33% 30.02 in 10.0 mi West 11.5 mph 18.4 mph N/A   Clear
1:53 PM 45.0 °F 41.8 °F 19.9 °F 37% 30.00 in 10.0 mi Variable 5.8 mph - N/A   Clear
2:53 PM 46.9 °F - 18.0 °F 32% 30.01 in 10.0 mi West 9.2 mph - N/A   Clear
3:53 PM 46.9 °F - 17.1 °F 30% 30.03 in 10.0 mi Variable 6.9 mph - N/A   Clear
4:53 PM 45.0 °F 40.6 °F 18.0 °F 34% 30.07 in 10.0 mi WSW 8.1 mph - N/A   Clear
5:53 PM 39.9 °F 35.8 °F 17.1 °F 40% 30.11 in 10.0 mi WSW 5.8 mph - N/A   Clear
6:53 PM 36.0 °F 31.1 °F 16.0 °F 44% 30.14 in 10.0 mi WSW 5.8 mph - N/A   Clear
7:53 PM 34.0 °F 28.8 °F 17.1 °F 50% 30.15 in 10.0 mi West 5.8 mph - N/A   Clear
8:53 PM 30.0 °F 24.1 °F 17.1 °F 59% 30.15 in 10.0 mi West 5.8 mph - N/A   Clear
10:53 PM 26.1 °F 21.9 °F 16.0 °F 66% 30.17 in 10.0 mi East 3.5 mph - N/A   Clear
11:53 PM 27.0 °F 20.5 °F 15.1 °F 61% 30.16 in 10.0 mi NE 5.8 mph - N/A   Clear